Stations météo

réclame
Mon MeteoGroup
St. Athan, Grande-Bretagne (3716): Température de l'air & dewpoint: 21.05.2018 06:00:00 - 27.05.2018 06:00:00 (BST)St. Athan, Grande-Bretagne (3716): Température de l'air -20cm & Température de l'air -100cm: 21.05.2018 06:00:00 - 27.05.2018 06:00:00 (BST)St. Athan, Grande-Bretagne (3716): Vitesse du vent & gusts: 21.05.2018 06:00:00 - 27.05.2018 06:00:00 (BST)St. Athan, Grande-Bretagne (3716): Direction du vent: 21.05.2018 06:00:00 - 27.05.2018 06:00:00 (BST)St. Athan, Grande-Bretagne (3716): reduced air pressure: 21.05.2018 06:00:00 - 27.05.2018 06:00:00 (BST)St. Athan, Grande-Bretagne (3716): visibility: 21.05.2018 06:00:00 - 27.05.2018 06:00:00 (BST)St. Athan, Grande-Bretagne (3716): Ensoleillement: 21.05.2018 06:00:00 - 27.05.2018 06:00:00 (BST)St. Athan, Grande-Bretagne (3716): Quantités de précipitations: 21.05.2018 06:00:00 - 27.05.2018 06:00:00 (BST)
Date & Time tt [°C] td [°C] tt -20cm [°C] tt -100cm [°C] ff [km/h] ff [knt] fx [km/h] fx [knt] dd ppp [hPa] vv [km] sd [min] rr [mm]
27.05.2018 06:00:00 13,8 11,7 - - 28 15 - - ENE 1014,6 17 0 0,0
27.05.2018 05:00:00 14,3 11,6 - - 28 15 - - ENE 1014,3 20 0 0,0
27.05.2018 04:00:00 15,4 11,3 - - 28 15 - - ENE 1014,0 30 0 0,0
27.05.2018 03:00:00 16,0 12,1 - - 29 16 48 26 ENE 1013,4 18 0 0,0
27.05.2018 02:00:00 16,1 12,2 - - 34 18 50 27 ENE 1013,8 24 0 0,2
27.05.2018 01:00:00 17,3 11,8 - - 34 18 50 27 ENE 1014,9 28 - 0,0
27.05.2018 00:00:00 17,5 12,0 - - 35 19 52 28 ENE 1014,8 10 0 0,0
26.05.2018 23:00:00 17,9 12,7 - - 37 20 55 30 NE 1015,2 30 0 0,0
26.05.2018 22:00:00 19,5 15,7 - - 39 21 57 31 ENE 1015,3 10 0 0,0
26.05.2018 21:00:00 20,6 16,1 - - 35 19 52 28 ENE 1014,7 17 0 0,0
26.05.2018 20:00:00 21,3 16,3 - - 34 18 46 25 ENE 1015,0 19 48 0,0
26.05.2018 19:00:00 21,4 16,7 - - 29 16 46 25 NE 1015,1 18 0 0,0
26.05.2018 18:00:00 20,9 16,3 - - 26 14 - - NE 1015,5 11 12 0,0
26.05.2018 17:00:00 21,5 16,4 - - 31 17 46 25 ENE 1016,3 6 60 0,0
26.05.2018 16:00:00 20,4 15,7 - - 28 15 - - NE 1017,1 6 42 0,0
26.05.2018 15:00:00 18,8 15,2 - - 28 15 46 25 ENE 1017,9 6 24 0,0
26.05.2018 14:00:00 18,2 14,2 - - 21 11 - - ENE 1018,2 7 0 0,0
26.05.2018 13:00:00 16,0 13,9 - - 26 14 - - NE 1018,9 5 0 0,0
26.05.2018 12:00:00 15,1 13,5 - - 24 13 - - NE 1019,4 5 0 0,0
26.05.2018 11:00:00 14,9 13,5 - - 18 10 - - ENE 1019,8 5 0 0,0
26.05.2018 10:00:00 14,7 13,2 14,9 13,0 22 12 - - ENE 1019,8 5 0 0,0
26.05.2018 09:00:00 15,5 13,0 - - 21 11 - - ENE 1019,6 5 18 0,0
26.05.2018 08:00:00 14,8 13,0 - - 16 9 - - NE 1019,7 6 0 0,0
26.05.2018 07:00:00 13,7 12,0 - - 18 10 - - NE 1019,6 9 0 0,0
26.05.2018 06:00:00 12,7 11,8 - - 16 9 - - NE 1019,5 4,1 0 0,0
26.05.2018 05:00:00 13,3 12,1 - - 18 10 - - NE 1019,5 6 0 0,0
26.05.2018 04:00:00 13,2 12,1 - - 18 10 - - ENE 1019,6 6 0 0,0
26.05.2018 03:00:00 13,0 11,9 - - 15 8 - - NE 1019,6 7 0 0,0
26.05.2018 02:00:00 13,4 12,1 - - 13 7 - - ENE 1019,8 9 0 0,0
26.05.2018 01:00:00 13,1 12,1 - - 11 6 - - ENE 1019,8 7 - 0,0
26.05.2018 00:00:00 12,2 11,5 - - 11 6 - - ENE 1019,5 5 0 0,0
25.05.2018 23:00:00 12,1 11,6 - - 11 6 - - NE 1019,3 3,8 0 0,2
25.05.2018 22:00:00 12,8 12,1 - - 9 5 - - ENE 1019,2 8 0 0,0
25.05.2018 21:00:00 13,6 12,9 - - 8 4 - - E 1018,6 8 0 0,0
25.05.2018 20:00:00 13,6 12,7 - - 5 3 - - ESE 1018,3 8 0 0,0
25.05.2018 19:00:00 13,6 12,8 - - 8 4 - - ESE 1018,1 4,4 0 0,0
25.05.2018 18:00:00 13,8 12,8 - - 4 2 - - SE 1018,0 8 0 1,0
25.05.2018 17:00:00 14,0 13,5 - - 5 3 - - W 1018,3 4,0 0 1,6
25.05.2018 16:00:00 13,5 13,0 - - 11 6 - - W 1018,3 2,0 0 1,2
25.05.2018 15:00:00 13,9 13,4 - - 9 5 - - W 1018,5 2,0 0 1,8
25.05.2018 14:00:00 13,9 13,1 - - 11 6 - - W 1018,6 3,0 0 1,4
25.05.2018 13:00:00 14,0 13,2 - - 11 6 - - WNW 1018,8 3,5 0 0,8
25.05.2018 12:00:00 14,2 12,9 - - 5 3 - - NW 1018,8 6 0 1,0
25.05.2018 11:00:00 13,9 12,4 - - 5 3 - - N 1018,9 8 0 1,2
25.05.2018 10:00:00 14,1 12,3 15,0 13,0 9 5 - - NNE 1019,2 6 0 0,2
25.05.2018 09:00:00 14,3 12,7 - - 5 3 - - E 1018,9 5 0 0,0
25.05.2018 08:00:00 13,3 12,8 - - 4 2 - - NE 1018,7 3,3 0 0,0
25.05.2018 07:00:00 12,4 12,0 - - 2 1 - - N 1018,7 2,5 0 0,0
25.05.2018 06:00:00 11,9 11,5 - - 8 4 - - NNW 1018,7 1,7 0 0,0
25.05.2018 05:00:00 12,0 11,7 - - 8 4 - - W 1018,5 1,8 0 0,0
25.05.2018 04:00:00 12,0 11,6 - - 9 5 - - W 1018,4 1,6 0 0,0
25.05.2018 03:00:00 12,4 11,9 - - 5 3 - - W 1018,5 2,2 0 0,0
25.05.2018 02:00:00 12,6 12,1 - - 8 4 - - WNW 1018,8 1,9 0 0,0
25.05.2018 01:00:00 12,7 12,2 - - 5 3 - - W 1019,1 1,9 - 0,2
25.05.2018 00:00:00 12,8 12,3 - - 5 3 - - W 1019,4 2,6 0 0,0
24.05.2018 23:00:00 13,0 12,2 - - 8 4 - - WSW 1019,4 2,6 0 0,4
24.05.2018 22:00:00 13,0 11,8 - - 2 1 - - SSE 1019,9 3,8 0 0,4
24.05.2018 21:00:00 13,4 11,8 - - 4 2 - - NE 1019,6 4,0 0 0,4
24.05.2018 20:00:00 13,6 11,4 - - 8 4 - - NE 1019,3 7 0 0,0
24.05.2018 19:00:00 13,9 11,6 - - 11 6 - - E 1019,6 7 0 0,0
24.05.2018 18:00:00 14,0 11,2 - - 18 10 - - ENE 1019,7 8 0 0,0
24.05.2018 17:00:00 13,8 11,5 - - 15 8 - - E 1019,6 6 0 0,0
24.05.2018 16:00:00 13,8 12,5 - - 13 7 - - E 1020,1 3,5 0 0,4
24.05.2018 15:00:00 12,7 11,8 - - 8 4 - - E 1020,5 3,5 0 3,6
24.05.2018 14:00:00 12,5 11,2 - - 18 10 - - ENE 1020,7 3,2 0 0,4
24.05.2018 13:00:00 13,6 9,8 - - 21 11 - - ENE 1020,8 10 0 0,0
24.05.2018 12:00:00 14,5 10,3 - - 16 9 - - E 1020,9 10 0 0,0
24.05.2018 11:00:00 13,0 9,2 - - 21 11 - - E 1021,2 8 0 0,0
24.05.2018 10:00:00 12,6 9,1 15,4 12,7 21 11 - - ENE 1021,3 8 0 0,0
24.05.2018 09:00:00 12,1 8,8 - - 26 14 - - ENE 1021,4 10 0 0,0
24.05.2018 08:00:00 11,7 8,6 - - 24 13 - - ENE 1021,3 13 0 0,0
24.05.2018 07:00:00 11,5 8,2 - - 24 13 - - ENE 1021,6 14 0 0,0
24.05.2018 06:00:00 11,3 8,0 - - 16 9 - - ENE 1021,4 14 0 0,0
24.05.2018 05:00:00 12,1 8,1 - - 22 12 - - ENE 1021,2 21 0 0,0
24.05.2018 04:00:00 13,2 8,2 - - 18 10 - - ENE 1021,6 21 0 0,0
24.05.2018 03:00:00 13,7 8,9 - - 13 7 - - E 1021,8 23 0 0,0
24.05.2018 02:00:00 15,0 8,6 - - 21 11 - - ENE 1021,8 25 0 0,0
24.05.2018 01:00:00 15,9 8,5 - - 22 12 - - ENE 1021,8 35 - 0,0
24.05.2018 00:00:00 16,8 9,6 - - 18 10 - - ENE 1022,1 30 0 0,0
23.05.2018 23:00:00 16,9 9,5 - - 21 11 - - NE 1022,2 27 0 0,0
23.05.2018 22:00:00 17,0 9,3 - - 16 9 - - NE 1022,2 35 0 0,0
23.05.2018 21:00:00 18,3 9,6 - - 16 9 - - NE 1022,1 30 36 0,0
23.05.2018 20:00:00 20,1 9,7 - - 15 8 - - NE 1021,9 27 60 0,0
23.05.2018 19:00:00 21,2 9,9 - - 18 10 - - ENE 1021,7 25 60 0,0
23.05.2018 18:00:00 21,2 10,7 - - 16 9 - - E 1021,9 24 60 0,0
23.05.2018 17:00:00 22,1 10,8 - - 13 7 - - ENE 1022,1 19 60 0,0
23.05.2018 16:00:00 21,3 11,4 - - 15 8 - - E 1022,5 10 60 0,0
23.05.2018 15:00:00 20,9 12,1 - - 13 7 - - SE 1023,0 10 60 0,0
23.05.2018 14:00:00 19,5 11,2 - - 13 7 - - ENE 1023,3 15 60 0,0
23.05.2018 13:00:00 18,1 9,6 - - 18 10 - - ENE 1023,7 10 60 0,0
23.05.2018 12:00:00 16,5 9,5 - - 16 9 - - ENE 1024,0 10 60 0,0
23.05.2018 11:00:00 14,9 8,6 - - 21 11 - - ENE 1024,1 7 60 0,0
23.05.2018 10:00:00 13,4 8,0 15,2 12,7 18 10 - - E 1024,1 7 60 0,0
23.05.2018 09:00:00 12,3 8,0 - - 21 11 - - E 1024,1 10 60 0,0
23.05.2018 08:00:00 11,4 8,0 - - 18 10 - - E 1023,9 10 60 0,0
23.05.2018 07:00:00 10,9 8,4 - - 15 8 - - E 1023,5 8 42 0,0
23.05.2018 06:00:00 9,9 8,0 - - 9 5 - - E 1022,9 9 0 0,0
23.05.2018 05:00:00 10,9 8,8 - - 2 1 - - NE 1022,6 12 0 0,0
23.05.2018 04:00:00 11,3 8,4 - - 5 3 - - E 1022,2 14 0 0,0
23.05.2018 03:00:00 12,2 8,8 - - 8 4 - - ENE 1022,0 18 0 0,0
23.05.2018 02:00:00 13,3 9,4 - - 8 4 - - NNE 1022,1 19 0 0,0
23.05.2018 01:00:00 13,7 8,9 - - 11 6 - - NNE 1021,9 35 - 0,0
23.05.2018 00:00:00 15,2 9,4 - - 9 5 - - NE 1021,4 35 0 0,0
22.05.2018 23:00:00 15,1 8,6 - - 9 5 - - NNE 1020,9 45 0 0,0
22.05.2018 22:00:00 15,7 9,3 - - 9 5 - - NNE 1020,2 35 0 0,0
22.05.2018 21:00:00 17,3 11,8 - - 4 2 - - N 1019,3 26 30 0,0
22.05.2018 20:00:00 17,9 12,2 - - 8 4 - - W 1018,8 30 60 0,0
22.05.2018 19:00:00 18,2 11,9 - - 11 6 - - WSW 1018,6 18 60 0,0
22.05.2018 18:00:00 18,7 11,4 - - 13 7 - - WSW 1018,5 23 60 0,0
22.05.2018 17:00:00 18,5 10,6 - - 11 6 - - SW 1018,4 35 60 0,0
22.05.2018 16:00:00 19,2 10,6 - - 15 8 - - W 1018,2 10 60 0,0
22.05.2018 15:00:00 18,5 10,1 - - 11 6 - - SW 1018,3 21 60 0,0
22.05.2018 14:00:00 17,5 10,1 - - 9 5 - - SW 1018,4 10 60 0,0
22.05.2018 13:00:00 17,0 10,6 - - 13 7 - - WSW 1018,4 10 60 0,0
22.05.2018 12:00:00 15,6 10,4 - - 13 7 - - WSW 1018,4 10 54 0,0
22.05.2018 11:00:00 15,7 10,9 - - 11 6 - - SW 1018,2 10 42 0,0
22.05.2018 10:00:00 14,9 10,6 15,0 12,4 9 5 - - SW 1017,9 10 18 0,0
22.05.2018 09:00:00 15,1 11,2 - - 8 4 - - WSW 1017,8 10 0 0,0
22.05.2018 08:00:00 13,9 10,5 - - 5 3 - - WSW 1017,5 24 0 0,0
22.05.2018 07:00:00 12,3 11,1 - - 0 0 - - N 1017,1 13 0 0,0
22.05.2018 06:00:00 11,8 10,5 - - 5 3 - - ESE 1016,5 17 0 0,0
22.05.2018 05:00:00 13,4 9,0 - - 4 2 - - SSE 1016,3 27 0 0,0
22.05.2018 04:00:00 15,1 8,1 - - 5 3 - - NNE 1016,3 30 0 0,0
22.05.2018 03:00:00 15,8 9,2 - - 11 6 - - NNE 1016,2 30 0 0,0
22.05.2018 02:00:00 16,2 9,9 - - 2 1 - - NNW 1016,3 23 0 0,0
22.05.2018 01:00:00 15,1 10,9 - - 4 2 - - SSW 1016,1 19 - 0,0
22.05.2018 00:00:00 15,2 11,5 - - 9 5 - - N 1016,1 19 0 0,0
21.05.2018 23:00:00 14,6 11,0 - - 5 3 - - NNW 1016,2 21 0 0,0
21.05.2018 22:00:00 15,0 10,5 - - 8 4 - - SE 1016,0 16 0 0,0
21.05.2018 21:00:00 16,1 11,3 - - 9 5 - - WNW 1015,3 23 0 0,0
21.05.2018 20:00:00 15,7 10,8 - - 9 5 - - W 1015,4 20 18 0,0
21.05.2018 19:00:00 18,8 10,5 - - 13 7 - - W 1015,1 40 60 0,0
21.05.2018 18:00:00 18,2 9,8 - - 21 11 - - WNW 1015,1 29 60 0,0
21.05.2018 17:00:00 19,3 9,8 - - 18 10 - - W 1015,3 10 60 0,0
21.05.2018 16:00:00 20,3 10,1 - - 13 7 - - W 1015,6 10 60 0,0
21.05.2018 15:00:00 19,8 10,7 - - 5 3 - - SW 1015,8 10 60 0,0
21.05.2018 14:00:00 18,6 10,9 - - 8 4 - - SW 1016,0 10 60 0,0
21.05.2018 13:00:00 18,2 10,2 - - 8 4 - - SSE 1016,3 10 60 0,0
21.05.2018 12:00:00 16,9 10,5 - - 8 4 - - SSE 1016,7 10 54 0,0
21.05.2018 11:00:00 17,1 11,9 - - 5 3 - - S 1017,0 10 54 0,0
21.05.2018 10:00:00 16,1 11,8 14,7 12,2 5 3 - - SSE 1017,3 10 48 0,0
21.05.2018 09:00:00 14,7 11,2 - - 9 5 - - SSE 1017,4 10 60 0,0
21.05.2018 08:00:00 14,5 10,2 - - 2 1 - - N 1017,4 10 60 0,0
21.05.2018 07:00:00 10,5 8,6 - - 5 3 - - NE 1017,3 14 30 0,0
21.05.2018 06:00:00 9,6 7,9 - - 5 3 - - NNE 1017,4 12 0 0,0

tt = Température de l'air
td = dewpoint
tt -20cm = Température de l'air -20cm
tt -100cm = Température de l'air -100cm
ff = Vitesse du vent
fx = gusts
dd = Direction du vent
ppp = reduced air pressure
vv = visibility
sd = Ensoleillement
rr = Quantités de précipitations

stations d'obs. à proximité